Weather in Khmelevo

Russia / Novgorod Oblast     58°01′36″N   31°36′20″E
temp.,
°C
wind,
m/s
gust,
m/s
humid.,
%
clouds,
%
prec.,
mm/h
press.,
hPa
HPBL,
m
4 march, thu
thu400:00+3w71489100 0.1 10041026
03:00+2wnw61393100 0.2 1003983
06:000nw3986100 0.1 1002560
09:00−2nnw3883100 0.1 1002515
12:000nnw36691 0.0 1002710
15:00+1nw36630 0.0 10031230
18:00−1nw377445 0.3 1003321
21:00−3nnw598672 0.7 1005749
5 march, fri
fri500:00−4nw387992 0.1 1006618
03:00−5wnw378446 0.1 1007406
06:00−5wnw268840 0.0 1007311
09:00−5nw258540 0.0 1009435
12:00−4nnw3472100 0.0 1010696
15:00−3nnw356999 0.0 1011849
18:00−4nnw367568 0.0 1013659
21:00−5nnw378268 0.1 1015534
6 march, sat
sat600:00−6nnw258560 0.0 1017288
03:00−7nw259167 0.1 1018355
06:00−7nw259297 0.1 1019285
09:00−7wnw368596 0.1 1019368
12:00−4w356663 0.0 1018825
15:00−2wsw585634 0.0 10151130
18:00−2sw6125597 0.0 10111283
21:00−2sw7168399 0.2 10071423
7 march, sun
sun700:00−1wsw71772100 0.0 10011345
03:00−2sw81592100 0.8 9971232
06:00−2nw81294100 2.1 994997
09:00−5wnw61358100 2.7 9951996
12:00−3w713461 0.0 9962246
15:00−2wsw8166350 0.1 9931881
18:00−3w81581100 1.0 9911504
21:00−6wnw61172100 2.4 9921364
8 march, mon
mon800:00−7n7118091 0.5 9961212
03:00−9nw6128180 0.5 10001021
06:00−10nw5118496 0.0 1002800
09:00−11nw698198 0.1 1005892
12:00−10nw5874100 0.1 1008952
15:00−9nw5873100 0.1 10101068
18:00−10nnw5982100 0.1 1013982
21:00−11n5985100 0.3 1016896